FW5940 Weather Reports


Display with metric or nautical units.
time (UTC)temp
F
wind
direction
speed
MPH
gust
MPH
rain 1hr
in
rain 24hr
in
rain mn
in
humidity
%
barometer
mb
20260508233516 46 44 0.0 1.0 0.00 0.00 0.00 87 1016.8
20260508232515 46 44 0.0 1.0 0.00 0.00 0.00 87 1016.8
20260508231516 47 0.0 0.0 0.00 0.00 0.00 87 1016.8
20260508230516 47 0.0 0.0 0.00 0.00 0.00 87 1016.8
20260508225517 47 0.0 0.0 0.00 0.00 0.00 86 1016.8
20260508224516 47 0.0 0.0 0.00 0.00 0.00 86 1016.8
20260508223515 48 0.0 0.0 0.00 0.00 0.00 86 1016.8
20260508222537 48 44 0.0 1.0 0.00 0.00 0.00 86 1017.0
20260508221535 48 44 0.0 1.0 0.00 0.00 0.00 86 1016.9
20260508220516 48 44 0.0 1.0 0.00 0.00 0.00 85 1016.9
20260508215515 49 0.0 0.0 0.00 0.00 0.00 85 1016.9
20260508214520 49 43 1.0 2.0 0.00 0.00 0.00 84 1016.9
20260508213516 50 0.0 0.0 0.00 0.00 0.00 83 1016.9
20260508212517 50 0.0 0.0 0.00 0.00 0.00 82 1016.8
20260508211516 50 0.0 0.0 0.00 0.00 0.00 82 1016.8
20260508210535 51 0.0 0.0 0.00 0.00 0.00 81 1016.8
20260508205518 51 0.0 0.0 0.00 0.00 0.00 81 1016.8
20260508204516 52 43 0.0 2.0 0.00 0.00 0.00 79 1016.8
20260508203519 53 44 1.0 3.0 0.00 0.00 0.00 77 1016.7
20260508202516 53 44 1.0 2.0 0.00 0.00 0.00 75 1016.6
20260508201517 54 44 1.0 3.0 0.00 0.00 0.00 74 1016.6
20260508200557 55 41 2.0 4.0 0.00 0.00 0.00 73 1016.6
20260508195535 55 39 2.0 3.0 0.00 0.00 0.00 74 1016.5
20260508194518 56 38 2.0 4.0 0.00 0.00 0.00 71 1016.4
20260508193516 57 39 2.0 4.0 0.00 0.00 0.00 69 1016.3
20260508192517 58 42 2.0 4.0 0.00 0.00 0.00 67 1016.2
20260508191516 58 39 3.0 6.0 0.00 0.00 0.00 67 1016.1
20260508190515 58 33 2.0 4.0 0.00 0.00 0.00 67 1015.9
20260508185516 59 32 2.0 5.0 0.00 0.00 0.00 65 1015.7
20260508184535 60 35 3.0 5.0 0.00 0.00 0.00 64 1015.6
20260508183517 61 40 2.0 5.0 0.00 0.00 0.00 63 1015.6
20260508182515 61 36 3.0 6.0 0.00 0.00 0.00 61 1015.5
20260508181638 62 38 3.0 5.0 0.00 0.00 0.00 60 1015.3
20260508180516 62 37 3.0 5.0 0.00 0.00 0.00 60 1015.2
20260508175516 63 39 3.0 7.0 0.00 0.00 0.00 58 1015.2
20260508174515 63 43 3.0 8.0 0.00 0.00 0.00 57 1015.0
20260508173515 63 36 5.0 10.0 0.00 0.00 0.00 57 1015.0
20260508172516 64 25 4.0 9.0 0.00 0.00 0.00 57 1014.9
20260508171515 64 10 5.0 9.0 0.00 0.00 0.00 55 1014.9
20260508170517 65 20 5.0 10.0 0.00 0.00 0.00 55 1014.8
20260508165515 65 31 7.0 12.0 0.00 0.00 0.00 54 1014.9
20260508164538 66 24 5.0 12.0 0.00 0.00 0.00 54 1014.9
20260508163517 66 26 6.0 11.0 0.00 0.00 0.00 55 1014.8
20260508162515 66 359 7.0 13.0 0.00 0.00 0.00 55 1014.7
20260508161517 66 61 3.0 7.0 0.00 0.00 0.00 55 1014.7
20260508160515 66 87 5.0 10.0 0.00 0.00 0.00 55 1014.6
20260508155538 66 75 3.0 8.0 0.00 0.00 0.00 55 1014.6
20260508154515 66 46 7.0 14.0 0.00 0.00 0.00 55 1014.5
20260508153515 66 50 5.0 11.0 0.00 0.00 0.00 56 1014.5
20260508152516 66 27 4.0 11.0 0.00 0.00 0.00 56 1014.5
20260508151515 65 348 3.0 9.0 0.00 0.00 0.00 55 1014.7
20260508150517 65 29 5.0 11.0 0.00 0.00 0.00 57 1014.9
20260508145516 65 9 4.0 10.0 0.00 0.00 0.00 58 1015.0
20260508144517 64 38 6.0 10.0 0.00 0.00 0.00 58 1015.2
20260508143516 65 50 4.0 9.0 0.00 0.00 0.00 57 1015.3
20260508142515 66 58 3.0 10.0 0.00 0.00 0.00 57 1015.3
20260508141520 65 27 4.0 11.0 0.00 0.00 0.00 58 1015.2
20260508140515 67 44 5.0 12.0 0.00 0.00 0.00 56 1015.1
20260508135517 65 56 3.0 9.0 0.00 0.00 0.00 59 1015.2
20260508134515 65 53 5.0 10.0 0.00 0.00 0.00 59 1015.3
20260508133537 65 21 4.0 9.0 0.00 0.00 0.00 58 1015.5
20260508132516 65 57 3.0 7.0 0.00 0.00 0.00 59 1015.5
20260508131515 65 38 5.0 11.0 0.00 0.00 0.00 60 1015.5
20260508130536 64 22 5.0 10.0 0.00 0.00 0.00 60 1015.6
20260508125515 66 40 7.0 11.0 0.00 0.00 0.00 58 1015.6
20260508124518 66 12 4.0 9.0 0.00 0.00 0.00 58 1015.6
20260508123537 66 43 5.0 11.0 0.00 0.00 0.00 59 1015.7
20260508122517 65 52 4.0 9.0 0.00 0.00 0.00 60 1015.6
20260508121515 64 55 7.0 11.0 0.00 0.00 0.00 61 1015.7
20260508120537 63 42 6.0 14.0 0.00 0.00 0.00 63 1015.7
20260508115516 63 13 5.0 9.0 0.00 0.00 0.00 64 1015.7
20260508114518 64 14 7.0 11.0 0.00 0.00 0.00 63 1015.7
20260508113537 62 67 3.0 9.0 0.00 0.00 0.00 66 1015.9
20260508112515 62 8 4.0 11.0 0.00 0.00 0.00 65 1016.0
20260508111518 62 63 2.0 4.0 0.00 0.00 0.00 66 1016.1
20260508110516 62 31 3.0 8.0 0.00 0.00 0.00 66 1016.1
20260508105516 62 18 5.0 11.0 0.00 0.00 0.00 65 1016.1
20260508104516 62 71 2.0 6.0 0.00 0.00 0.00 67 1016.1
20260508103537 60 287 3.0 9.0 0.00 0.00 0.00 70 1016.2
20260508102537 59 297 2.0 4.0 0.00 0.00 0.00 72 1016.3
20260508101536 59 19 2.0 5.0 0.00 0.00 0.00 72 1016.4
20260508100515 59 324 3.0 5.0 0.00 0.00 0.00 73 1016.3
20260508095517 59 23 3.0 8.0 0.00 0.00 0.00 73 1016.4
20260508094536 60 98 3.0 7.0 0.00 0.00 0.00 74 1016.3
20260508093516 60 125 3.0 10.0 0.00 0.00 0.00 73 1016.5
20260508092517 60 131 5.0 9.0 0.00 0.00 0.00 73 1016.5
20260508091536 59 99 5.0 8.0 0.00 0.00 0.00 74 1016.6
20260508090519 57 103 4.0 10.0 0.00 0.00 0.00 75 1016.7
20260508085515 57 117 5.0 10.0 0.00 0.00 0.00 76 1016.7
20260508084515 57 106 6.0 11.0 0.00 0.00 0.00 75 1016.6
20260508083516 57 118 4.0 9.0 0.00 0.00 0.00 76 1016.7
20260508082517 57 103 5.0 10.0 0.00 0.00 0.00 76 1016.6
20260508081517 55 122 6.0 11.0 0.00 0.00 0.00 78 1016.5
20260508080517 56 106 5.0 11.0 0.00 0.00 0.00 79 1016.5
20260508075515 55 108 4.0 9.0 0.00 0.00 0.00 79 1016.4
20260508074516 54 101 3.0 8.0 0.00 0.00 0.00 81 1016.5
20260508073516 53 126 2.0 7.0 0.00 0.00 0.00 82 1016.5
20260508072517 52 26 3.0 5.0 0.00 0.00 0.00 84 1016.5
20260508071516 52 84 3.0 6.0 0.00 0.00 0.00 85 1016.5
20260508070518 51 99 3.0 6.0 0.00 0.00 0.00 87 1016.5
20260508065516 50 71 3.0 8.0 0.00 0.00 0.00 88 1016.6
20260508064536 49 105 2.0 6.0 0.00 0.00 0.00 89 1016.6
20260508063538 49 113 4.0 9.0 0.00 0.00 0.00 90 1016.6
20260508062515 48 101 4.0 8.0 0.00 0.00 0.00 91 1016.5
20260508061538 46 186 1.0 3.0 0.00 0.00 0.00 91 1016.4
20260508060516 45 186 2.0 3.0 0.00 0.00 0.00 91 1016.2
20260508055517 45 186 1.0 3.0 0.00 0.00 0.00 91 1016.1
20260508054536 44 186 1.0 2.0 0.00 0.00 0.00 91 1016.0
20260508053515 44 186 1.0 3.0 0.00 0.00 0.00 91 1016.0
20260508052515 43 183 3.0 4.0 0.00 0.00 0.00 91 1015.9
20260508051515 42 183 1.0 3.0 0.00 0.00 0.00 91 1015.9
20260508050515 41 101 2.0 3.0 0.00 0.00 0.00 90 1016.0
20260508045516 41 86 0.0 2.0 0.00 0.00 0.00 90 1015.8
20260508044516 40 0.0 0.0 0.00 0.00 0.00 90 1015.7
20260508043516 40 0.0 0.0 0.00 0.00 0.00 90 1015.5
20260508042515 40 0.0 0.0 0.00 0.00 0.00 90 1015.4
20260508041515 40 0.0 0.0 0.00 0.00 0.00 90 1015.4
20260508040515 40 0.0 0.0 0.00 0.00 0.00 90 1015.4
20260508035516 40 0.0 0.0 0.00 0.00 0.00 90 1015.4
20260508034516 40 0.0 0.0 0.00 0.00 0.00 90 1015.3
20260508033517 41 0.0 0.0 0.00 0.00 0.00 90 1015.4
20260508032516 41 83 1.0 2.0 0.00 0.00 0.00 90 1015.4
20260508031515 41 71 1.0 3.0 0.00 0.00 0.00 90 1015.3
20260508030516 41 59 0.0 1.0 0.00 0.00 0.00 89 1015.3
20260508025515 41 0.0 0.0 0.00 0.00 0.00 89 1015.3
20260508024537 42 0.0 0.0 0.00 0.00 0.00 89 1015.3
20260508023515 42 59 0.0 1.0 0.00 0.00 0.00 90 1015.4
20260508022518 42 0.0 0.0 0.00 0.00 0.00 89 1015.5
20260508021517 42 59 0.0 1.0 0.00 0.00 0.00 89 1015.5
20260508020537 42 0.0 0.0 0.00 0.00 0.00 89 1015.5
20260508015515 42 0.0 0.0 0.00 0.00 0.00 89 1015.5
20260508014536 43 59 0.0 1.0 0.00 0.00 0.00 89 1015.5
20260508013516 43 0.0 0.0 0.00 0.00 0.00 89 1015.4
20260508012515 44 0.0 0.0 0.00 0.00 0.00 89 1015.4
20260508011516 44 0.0 0.0 0.00 0.00 0.00 88 1015.4
20260508010516 44 0.0 0.0 0.00 0.00 0.00 88 1015.6
20260508005538 45 0.0 0.0 0.00 0.00 0.00 88 1015.6
20260508004515 45 0.0 0.0 0.00 0.00 0.00 88 1015.6
20260508003515 46 59 1.0 2.0 0.00 0.00 0.00 88 1015.8
20260508002515 46 59 0.0 1.0 0.00 0.00 0.00 87 1015.9
20260508001516 46 59 0.0 1.0 0.00 0.00 0.00 86 1015.9
20260508000517 47 0.0 0.0 0.00 0.00 0.00 86 1015.9
20260507235516 47 0.0 0.0 0.00 0.00 0.00 84 1016.0
20260507234517 48 59 0.0 1.0 0.00 0.00 0.00 83 1016.0